Location: B?jaj?g
(11.7167°N, 92.6667°E)
Time: 12:45:49
(UTC+00:00)

Cosmos 1782 Rocket - Pass Details

Date: 18 September 2020
Orbit: 607 x 632 km, 82.5° (Epoch: 23 October)

Event Time Altitude Azimuth Distance (km) Brightness Sun altitude
Rises 12:03:53 0° 172° (S) 2,864 6.9 -4.7°
Reaches altitude 10° 12:06:10 10° 166° (SSE) 1,963 6.0 -5.3°
Maximum altitude 12:10:19 45° 93° (E) 834 3.8 -6.3°
Drops below altitude 10° 12:14:30 10° 20° (NNE) 1,978 6.0 -7.3°
Sets 12:16:48 0° 14° (NNE) 2,888 6.9 -7.9°
